W1HVD Weather Reports


time (UTC)temp
C
wind
direction
speed
KPH
gust
KPH
rain 1hr
cm
rain 24hr
cm
rain mn
cm
humidity
%
barometer
mb
20260507094751 9 235 0.0 0.0 0.00 1.02 1.02 99 1007.4
20260507094248 9 216 0.0 1.6 0.00 1.02 1.02 99 1007.4
20260507093745 9 265 3.2 3.2 0.13 1.02 1.02 99 1007.6
20260507093244 10 208 0.0 0.0 0.13 1.02 1.02 99 1007.3
20260507092741 10 214 0.0 1.6 0.18 0.99 0.99 99 1007.1
20260507092236 10 222 0.0 1.6 0.18 0.99 0.99 99 1007.2
20260507091733 10 51 1.6 3.2 0.00 0.97 0.97 99 1007.0
20260507091230 10 207 0.0 0.0 0.13 0.97 0.97 99 1007.6
20260507090725 10 202 0.0 0.0 0.13 0.97 0.97 99 1007.5
20260507090222 10 213 0.0 1.6 0.13 0.97 0.97 99 1007.3
20260507085719 10 217 0.0 0.0 0.00 0.94 0.94 99 1007.0
20260507085216 10 186 0.0 0.0 0.00 0.94 0.94 99 1006.9
20260507084713 10 217 0.0 0.0 0.18 0.94 0.94 99 1006.9
20260507084209 10 180 0.0 0.0 0.30 0.94 0.94 99 1006.8
20260507083707 11 211 0.0 0.0 0.30 0.94 0.94 99 1006.6
20260507083204 11 167 0.0 0.0 0.18 0.89 0.89 99 1007.0
20260507082700 11 246 3.2 3.2 0.30 0.89 0.89 99 1006.9
20260507082155 11 160 3.2 6.4 0.30 0.89 0.89 99 1006.4
20260507081653 11 199 0.0 0.0 0.79 0.86 0.86 99 1006.9
20260507081149 11 219 1.6 1.6 1.07 0.81 0.81 99 1007.0
20260507080645 12 132 1.6 6.4 1.19 0.74 0.74 99 1006.7
20260507080143 12 202 1.6 1.6 1.37 0.64 0.64 99 1006.6
20260507075642 12 225 1.6 1.6 2.11 0.53 0.53 99 1007.3
20260507075139 12 185 0.0 1.6 2.11 0.41 0.41 99 1006.6
20260507074636 12 247 3.2 3.2 1.07 0.18 0.18 99 1006.4
20260507074134 12 189 0.0 0.0 0.30 0.05 0.05 99 1006.2
20260507073630 12 196 0.0 0.0 0.00 0.00 0.00 99 1005.9
20260507073127 12 194 0.0 0.0 0.00 0.00 0.00 99 1005.6
20260507072625 12 188 1.6 1.6 0.00 0.00 0.00 99 1005.8
20260507072122 12 202 0.0 0.0 0.00 0.00 0.00 99 1005.5
20260507071619 12 182 0.0 0.0 0.00 0.00 0.00 99 1005.8
20260507071115 12 198 0.0 0.0 0.00 0.00 0.00 99 1005.8
20260507070612 12 208 0.0 0.0 0.00 0.00 0.00 99 1005.9
20260507070109 12 196 0.0 0.0 0.00 0.00 0.00 99 1005.9
20260507065606 12 199 0.0 0.0 0.00 0.00 0.00 99 1005.7
20260507065103 12 195 0.0 0.0 0.00 0.00 0.00 99 1005.9
20260507064600 12 218 0.0 1.6 0.00 0.00 0.00 99 1006.0
20260507064059 12 205 0.0 0.0 0.00 0.00 0.00 99 1005.8
20260507063556 12 203 0.0 0.0 0.00 0.00 0.00 99 1005.8
20260507063053 12 202 0.0 0.0 0.00 0.00 0.00 99 1006.1
20260507062549 12 200 0.0 0.0 0.00 0.00 0.00 99 1005.8
20260507062047 12 210 0.0 0.0 0.00 0.00 0.00 99 1005.9
20260507061545 12 203 0.0 0.0 0.00 0.00 0.00 99 1005.9
20260507061043 12 108 0.0 1.6 0.00 0.00 0.00 99 1005.9
20260507060540 12 222 3.2 3.2 0.00 0.00 0.00 99 1006.0
20260507060037 12 204 0.0 0.0 0.00 0.00 0.00 99 1006.5
20260507055531 12 204 1.6 1.6 0.00 0.00 0.00 99 1006.1
20260507055028 13 210 0.0 0.0 0.00 0.00 0.00 99 1006.4
20260507054524 13 218 0.0 0.0 0.00 0.00 0.00 99 1006.4
20260507054021 13 199 0.0 1.6 0.00 0.00 0.00 99 1006.4
20260507053519 13 188 1.6 3.2 0.00 0.00 0.00 99 1006.4
20260507053017 13 198 1.6 1.6 0.00 0.00 0.00 99 1006.4
20260507052515 13 226 0.0 1.6 0.00 0.00 0.00 99 1006.5
20260507052011 13 181 1.6 3.2 0.00 0.00 0.00 99 1006.7
20260507051509 13 208 0.0 0.0 0.00 0.00 0.00 99 1006.7
20260507051006 13 200 1.6 1.6 0.00 0.00 0.00 99 1006.5
20260507050502 13 221 1.6 3.2 0.00 0.00 0.00 99 1006.6
20260507045959 13 245 0.0 1.6 0.00 0.00 0.00 99 1007.0
20260507045455 13 231 1.6 1.6 0.00 0.00 0.00 99 1006.8
20260507044953 13 197 0.0 0.0 0.00 0.00 0.00 99 1006.6
20260507044449 13 181 1.6 3.2 0.00 0.00 0.00 99 1006.8
20260507043945 13 213 0.0 1.6 0.00 0.00 0.00 99 1006.8
20260507043442 13 206 0.0 0.0 0.00 0.00 0.00 99 1006.8
20260507042938 13 195 3.2 3.2 0.00 0.00 0.00 99 1006.6
20260507042435 13 253 1.6 3.2 0.00 0.00 0.00 99 1006.5
20260507041931 13 213 0.0 1.6 0.00 0.00 0.00 99 1006.7
20260507041427 13 180 1.6 1.6 0.00 0.00 0.00 99 1006.7
20260507040925 13 205 0.0 1.6 0.00 0.00 0.00 99 1006.7
20260507040421 13 223 1.6 1.6 0.00 0.00 0.00 99 1006.7
20260507035917 13 234 0.0 1.6 0.00 0.43 0.43 99 1006.6
20260507035413 13 217 0.0 1.6 0.00 0.43 0.43 99 1006.6
20260507034910 13 205 0.0 0.0 0.00 0.43 0.43 99 1006.8
20260507034407 13 226 1.6 1.6 0.00 0.43 0.43 99 1006.9
20260507033905 13 156 3.2 3.2 0.00 0.43 0.43 99 1006.9
20260507033403 13 219 1.6 3.2 0.00 0.43 0.43 99 1007.2
20260507032859 13 206 0.0 0.0 0.00 0.43 0.43 99 1006.9
20260507032356 12 180 0.0 1.6 0.00 0.43 0.43 99 1007.0
20260507031852 12 225 3.2 4.8 0.00 0.43 0.43 99 1006.7
20260507031349 12 212 3.2 3.2 0.00 0.43 0.43 99 1006.8
20260507030846 12 201 6.4 11.3 0.00 0.43 0.43 99 1006.8
20260507030343 12 167 4.8 6.4 0.00 0.43 0.43 99 1006.8
20260507025840 12 207 1.6 3.2 0.00 0.43 0.43 99 1006.9
20260507025337 12 199 1.6 4.8 0.00 0.43 0.43 99 1006.8
20260507024835 12 247 1.6 3.2 0.00 0.43 0.43 99 1006.8
20260507024332 12 210 0.0 0.0 0.00 0.43 0.43 99 1006.6
20260507023828 12 209 0.0 1.6 0.00 0.43 0.43 99 1006.6
20260507023325 12 184 0.0 1.6 0.00 0.43 0.43 99 1006.6
20260507022823 12 234 0.0 1.6 0.00 0.43 0.43 99 1006.5
20260507022319 12 240 1.6 4.8 0.00 0.43 0.43 99 1006.5
20260507021815 12 227 3.2 3.2 0.00 0.43 0.43 99 1006.9
20260507021311 12 227 1.6 3.2 0.00 0.43 0.43 99 1006.8
20260507020809 12 218 3.2 4.8 0.00 0.43 0.43 99 1006.8
20260507020305 12 242 1.6 1.6 0.00 0.43 0.43 99 1007.2
20260507015802 12 198 1.6 1.6 0.00 0.43 0.43 99 1007.1
20260507015300 12 351 1.6 4.8 0.00 0.43 0.43 99 1007.5
20260507014757 12 188 3.2 6.4 0.00 0.43 0.43 99 1007.4
20260507014253 12 231 1.6 1.6 0.00 0.43 0.43 99 1007.3
20260507013750 12 218 6.4 6.4 0.00 0.43 0.43 99 1007.1
20260507013247 12 212 1.6 3.2 0.00 0.43 0.43 99 1007.4
20260507012744 12 236 1.6 3.2 0.00 0.43 0.43 99 1007.3
20260507012244 12 212 0.0 1.6 0.00 0.43 0.43 99 1007.3
20260507011743 12 195 8.0 11.3 0.00 0.43 0.43 99 1007.4
20260507011239 12 15 3.2 4.8 0.00 0.43 0.43 99 1007.4
20260507010738 12 47 3.2 4.8 0.00 0.43 0.43 99 1007.6
20260507010234 12 206 3.2 3.2 0.00 0.43 0.43 99 1007.5
20260507005732 12 218 3.2 4.8 0.00 0.43 0.43 99 1007.5
20260507005228 13 235 8.0 12.9 0.00 0.43 0.43 99 1007.4
20260507004725 13 199 3.2 4.8 0.00 0.43 0.43 99 1007.6
20260507004223 13 249 6.4 6.4 0.00 0.43 0.43 99 1007.4
20260507003719 13 213 6.4 6.4 0.00 0.43 0.43 99 1007.3
20260507003214 13 252 3.2 4.8 0.18 0.43 0.43 99 1007.3
20260507002710 13 232 6.4 9.7 0.18 0.43 0.43 99 1007.3
20260507002206 13 216 3.2 3.2 0.00 0.41 0.41 99 1007.3
20260507001703 13 203 6.4 6.4 0.00 0.41 0.41 99 1007.2
20260507001201 13 133 3.2 3.2 0.00 0.41 0.41 99 1007.3
20260507000657 13 187 1.6 1.6 0.00 0.41 0.41 99 1007.5
20260507000152 13 170 1.6 1.6 0.00 0.41 0.41 99 1007.2
20260506235650 13 197 3.2 6.4 0.00 0.41 0.41 99 1007.5
20260506235145 13 159 1.6 1.6 0.13 0.41 0.41 99 1007.2
20260506234642 13 230 3.2 3.2 0.13 0.41 0.41 99 1007.2
20260506234139 13 158 6.4 11.3 0.00 0.38 0.38 99 1007.4
20260506233636 13 191 1.6 1.6 0.18 0.38 0.38 99 1007.5
20260506233133 13 154 3.2 3.2 0.18 0.38 0.38 98 1007.3
20260506232629 13 222 1.6 1.6 0.00 0.36 0.36 98 1007.4
20260506232125 13 220 3.2 4.8 0.13 0.36 0.36 98 1007.5
20260506231622 13 243 12.9 16.1 0.30 0.36 0.36 98 1007.6
20260506231121 13 237 6.4 9.7 0.18 0.33 0.33 98 1007.4
20260506230617 13 187 6.4 9.7 0.18 0.30 0.30 98 1007.4
20260506230114 13 194 1.6 3.2 0.30 0.30 0.30 98 1007.4
20260506225611 13 202 9.7 16.1 0.30 0.28 0.28 98 1007.3
20260506225107 13 174 4.8 4.8 0.18 0.25 0.25 98 1007.3
20260506224604 13 226 3.2 4.8 0.13 0.23 0.23 97 1007.3
20260506224101 13 189 1.6 4.8 0.30 0.23 0.23 97 1007.6
20260506223556 13 106 3.2 4.8 0.18 0.20 0.20 97 1007.3
20260506223053 13 222 4.8 9.7 0.13 0.18 0.18 97 1007.5
20260506222550 13 203 1.6 1.6 0.13 0.18 0.18 96 1007.5
20260506222046 13 173 9.7 12.9 0.00 0.15 0.15 96 1007.7
20260506221544 13 86 3.2 6.4 0.00 0.15 0.15 96 1007.7
20260506221042 13 211 8.0 11.3 0.00 0.15 0.15 96 1007.8
20260506220537 13 225 4.8 6.4 0.00 0.15 0.15 96 1007.9
20260506220033 13 233 4.8 9.7 0.00 0.15 0.15 96 1008.0
20260506215530 13 238 6.4 6.4 0.00 0.15 0.15 97 1007.9
20260506215026 13 203 1.6 3.2 0.00 0.15 0.15 97 1007.9
20260506214523 13 231 3.2 4.8 0.00 0.15 0.15 97 1007.8
20260506214020 13 293 3.2 4.8 0.00 0.15 0.15 96 1008.0
20260506213518 13 152 1.6 4.8 0.18 0.15 0.15 96 1007.9
20260506213015 14 198 3.2 4.8 0.30 0.15 0.15 96 1007.9
20260506212512 14 246 1.6 1.6 0.30 0.13 0.13 95 1008.0
20260506212007 14 202 0.0 0.0 0.30 0.10 0.10 94 1007.9
20260506211502 14 313 4.8 4.8 0.13 0.08 0.08 94 1008.2
20260506211000 15 260 6.4 9.7 0.00 0.05 0.05 93 1008.2
20260506210456 15 79 3.2 4.8 0.00 0.05 0.05 91 1008.0
20260506205953 15 212 8.0 14.5 0.00 0.05 0.05 89 1008.1
20260506205449 15 164 6.4 9.7 0.00 0.05 0.05 89 1008.2
20260506204946 15 205 4.8 6.4 0.00 0.05 0.05 91 1008.1
20260506204444 15 222 3.2 4.8 0.00 0.05 0.05 91 1008.3
20260506203941 15 231 1.6 3.2 0.00 0.05 0.05 91 1008.3
20260506203438 15 213 4.8 9.7 0.00 0.05 0.05 92 1008.3
20260506202935 15 193 3.2 4.8 0.00 0.05 0.05 93 1008.4
20260506202432 15 102 3.2 3.2 0.00 0.05 0.05 92 1008.7
20260506201928 15 185 4.8 6.4 0.00 0.05 0.05 92 1008.6
20260506201426 15 223 1.6 3.2 0.00 0.05 0.05 92 1008.4
20260506200922 15 78 3.2 4.8 0.18 0.05 0.05 92 1008.6
20260506200419 14 192 4.8 6.4 0.18 0.05 0.05 91 1008.7
20260506195915 15 208 3.2 4.8 0.30 0.05 0.05 90 1009.0
20260506195413 15 191 14.5 17.7 0.13 0.03 0.03 88 1008.8
20260506194909 15 204 6.4 11.3 0.00 0.00 0.00 86 1009.0
20260506194406 15 250 4.8 4.8 0.00 0.00 0.00 83 1009.0
20260506193903 16 185 8.0 11.3 0.00 0.00 0.00 81 1008.9
20260506193400 16 243 3.2 6.4 0.00 0.00 0.00 79 1008.8
20260506192856 16 232 3.2 3.2 0.00 0.00 0.00 78 1008.8
20260506192353 16 225 14.5 24.1 0.00 0.00 0.00 78 1009.0
20260506191850 16 83 4.8 11.3 0.00 0.00 0.00 77 1008.8
20260506191346 16 242 4.8 6.4 0.00 0.00 0.00 78 1008.9
20260506190844 16 220 9.7 14.5 0.00 0.00 0.00 78 1008.9
20260506190340 16 210 11.3 14.5 0.00 0.00 0.00 77 1009.1
20260506185837 16 244 16.1 22.5 0.00 0.00 0.00 77 1009.1
20260506185334 17 205 9.7 14.5 0.00 0.00 0.00 77 1008.9
20260506184831 17 231 4.8 9.7 0.00 0.00 0.00 77 1009.0
20260506184328 17 215 8.0 12.9 0.00 0.00 0.00 77 1009.0
20260506183826 17 251 6.4 9.7 0.00 0.00 0.00 76 1009.3
20260506183320 17 198 6.4 9.7 0.00 0.00 0.00 76 1009.0
20260506182818 17 176 3.2 6.4 0.00 0.00 0.00 77 1009.1
20260506182315 17 285 3.2 4.8 0.00 0.00 0.00 76 1009.4
20260506181808 17 236 11.3 14.5 0.00 0.00 0.00 76 1009.3
20260506181305 17 188 9.7 12.9 0.00 0.00 0.00 75 1009.2
20260506180802 17 142 16.1 27.4 0.00 0.00 0.00 74 1009.5
20260506180257 17 178 6.4 11.3 0.00 0.00 0.00 74 1009.5
20260506175754 18 308 12.9 20.9 0.00 0.00 0.00 74 1009.5
20260506175251 18 207 3.2 6.4 0.00 0.00 0.00 74 1009.7
20260506174749 18 212 6.4 9.7 0.00 0.00 0.00 73 1009.9
20260506174246 18 36 6.4 12.9 0.00 0.00 0.00 72 1010.0
20260506173744 18 216 17.7 27.4 0.00 0.00 0.00 71 1010.0
20260506173240 18 142 14.5 24.1 0.00 0.00 0.00 71 1010.2
20260506172737 18 227 8.0 17.7 0.00 0.00 0.00 71 1010.1
20260506172233 19 254 4.8 9.7 0.00 0.00 0.00 71 1010.0
20260506171731 18 14 3.2 4.8 0.00 0.00 0.00 72 1009.9
20260506171228 18 317 4.8 9.7 0.00 0.00 0.00 71 1009.9
20260506170725 19 131 8.0 11.3 0.00 0.00 0.00 70 1009.9
20260506170222 18 203 8.0 17.7 0.00 0.00 0.00 72 1010.2
20260506165721 18 234 8.0 12.9 0.00 0.00 0.00 73 1010.3
20260506165217 18 296 12.9 24.1 0.00 0.00 0.00 72 1010.3
20260506164715 18 149 8.0 12.9 0.00 0.00 0.00 72 1010.4
20260506164212 18 231 6.4 11.3 0.00 0.00 0.00 71 1010.5
20260506163708 18 201 6.4 9.7 0.00 0.00 0.00 71 1010.3
20260506163203 18 157 14.5 17.7 0.00 0.00 0.00 71 1010.7
20260506162659 19 223 4.8 6.4 0.00 0.00 0.00 71 1010.5
20260506162157 18 246 9.7 11.3 0.00 0.00 0.00 70 1010.6
20260506161654 18 177 11.3 14.5 0.00 0.00 0.00 70 1010.7
20260506161150 18 174 4.8 6.4 0.00 0.00 0.00 72 1010.7
20260506160649 19 82 9.7 17.7 0.00 0.00 0.00 70 1010.7
20260506160145 19 207 4.8 4.8 0.00 0.00 0.00 70 1010.8
20260506155644 20 225 8.0 12.9 0.00 0.00 0.00 69 1011.0
20260506155140 20 226 6.4 9.7 0.00 0.00 0.00 68 1011.0
20260506153242 18 153 14.5 14.5 0.00 0.00 0.00 70 1011.1
20260506152739 18 204 4.8 6.4 0.00 0.00 0.00 71 1011.1
20260506152237 18 145 8.0 16.1 0.00 0.00 0.00 70 1011.3
20260506151736 18 266 12.9 20.9 0.00 0.00 0.00 71 1011.2
20260506151232 18 1 11.3 14.5 0.00 0.00 0.00 72 1011.1
20260506150728 18 286 8.0 17.7 0.00 0.00 0.00 71 1011.2
20260506150226 18 229 6.4 9.7 0.00 0.00 0.00 72 1011.4
20260506145723 18 208 9.7 12.9 0.00 0.00 0.00 72 1011.1
20260506145219 18 199 1.6 1.6 0.00 0.00 0.00 73 1011.2
20260506144716 18 202 4.8 11.3 0.00 0.00 0.00 73 1011.1
20260506144213 18 247 8.0 16.1 0.00 0.00 0.00 72 1011.1
20260506143711 18 322 6.4 9.7 0.00 0.00 0.00 72 1011.0
20260506143208 18 210 3.2 4.8 0.00 0.00 0.00 72 1011.2
20260506142707 18 222 9.7 14.5 0.00 0.00 0.00 71 1011.2
20260506142204 18 227 4.8 11.3 0.00 0.00 0.00 73 1011.0
20260506141702 18 64 3.2 6.4 0.00 0.00 0.00 71 1011.0
20260506141200 18 38 1.6 3.2 0.00 0.00 0.00 73 1010.8
20260506140658 18 220 4.8 4.8 0.00 0.00 0.00 73 1011.0
20260506140154 18 251 8.0 11.3 0.00 0.00 0.00 72 1011.3
20260506135651 18 241 11.3 25.7 0.00 0.00 0.00 73 1011.3
20260506135147 17 240 6.4 11.3 0.00 0.00 0.00 73 1011.3
20260506134644 17 268 8.0 14.5 0.00 0.00 0.00 74 1011.4
20260506134140 17 104 6.4 11.3 0.00 0.00 0.00 74 1011.6
20260506133637 17 107 6.4 9.7 0.00 0.00 0.00 76 1011.4
20260506133134 17 276 8.0 12.9 0.00 0.00 0.00 75 1011.6
20260506132632 17 189 14.5 24.1 0.00 0.00 0.00 76 1011.6
20260506132128 17 217 6.4 6.4 0.00 0.00 0.00 78 1011.5
20260506131626 17 318 9.7 14.5 0.00 0.00 0.00 76 1011.6
20260506131122 17 266 3.2 4.8 0.00 0.00 0.00 77 1011.6
20260506130619 17 231 8.0 14.5 0.00 0.00 0.00 77 1011.5
20260506130117 17 118 4.8 11.3 0.00 0.00 0.00 78 1011.4
20260506125615 16 197 4.8 9.7 0.00 0.00 0.00 78 1011.6
20260506125112 16 288 3.2 4.8 0.00 0.00 0.00 79 1011.3
20260506124610 16 171 6.4 11.3 0.00 0.00 0.00 80 1011.4
20260506124107 16 56 4.8 6.4 0.00 0.00 0.00 80 1011.4
20260506123605 16 230 1.6 1.6 0.00 0.00 0.00 81 1011.2
20260506123103 16 225 4.8 9.7 0.00 0.00 0.00 82 1011.4
20260506122559 16 171 6.4 11.3 0.00 0.00 0.00 83 1011.6
20260506122058 15 160 3.2 4.8 0.00 0.00 0.00 83 1011.5
20260506121555 15 162 6.4 9.7 0.00 0.00 0.00 84 1011.7
20260506121051 15 255 11.3 12.9 0.00 0.00 0.00 85 1011.9
20260506120549 15 217 3.2 4.8 0.00 0.00 0.00 85 1012.1
20260506120046 15 197 8.0 11.3 0.00 0.00 0.00 84 1012.1
20260506115544 15 262 4.8 6.4 0.00 0.00 0.00 84 1011.9
20260506115042 15 191 1.6 3.2 0.00 0.00 0.00 85 1011.9
20260506114539 15 225 6.4 6.4 0.00 0.00 0.00 86 1012.0
20260506114038 15 180 4.8 6.4 0.00 0.00 0.00 86 1012.0
20260506113535 15 227 9.7 16.1 0.00 0.00 0.00 86 1012.0
20260506113032 15 272 3.2 4.8 0.00 0.00 0.00 87 1012.2
20260506112529 15 214 6.4 9.7 0.00 0.00 0.00 86 1012.0
20260506112026 14 252 9.7 14.5 0.00 0.00 0.00 87 1011.9
20260506111524 14 238 4.8 4.8 0.00 0.00 0.00 87 1012.2
20260506111021 14 212 6.4 6.4 0.00 0.00 0.00 87 1012.2
20260506110519 15 277 1.6 3.2 0.00 0.00 0.00 87 1012.1
20260506110016 15 237 3.2 4.8 0.00 0.00 0.00 87 1012.1
20260506105511 14 236 4.8 4.8 0.00 0.00 0.00 87 1012.1
20260506105009 14 262 3.2 4.8 0.00 0.00 0.00 87 1012.1
20260506104507 14 219 3.2 3.2 0.00 0.00 0.00 88 1012.0
20260506104005 14 193 4.8 6.4 0.00 0.00 0.00 88 1012.1
20260506103502 14 207 4.8 4.8 0.00 0.00 0.00 88 1012.3
20260506102958 14 183 6.4 11.3 0.00 0.00 0.00 88 1012.0
20260506102456 14 138 3.2 3.2 0.00 0.00 0.00 88 1012.0
20260506101954 14 177 6.4 11.3 0.00 0.00 0.00 89 1011.9
20260506101450 14 175 8.0 12.9 0.00 0.00 0.00 88 1012.0
20260506100947 14 223 3.2 4.8 0.00 0.00 0.00 89 1011.9
20260506100446 14 107 4.8 6.4 0.00 0.00 0.00 89 1011.8
20260506095943 14 218 1.6 1.6 0.00 0.00 0.00 89 1011.6
20260506095442 14 64 6.4 11.3 0.00 0.00 0.00 89 1011.5